EW1931 Weather Reports


time (UTC)temp
C
wind
direction
speed
KPH
gust
KPH
rain 1hr
cm
rain 24hr
cm
rain mn
cm
humidity
%
barometer
mb
20260505033104 6 44 12.9 20.9 0.00 0.00 0.00 46 929.8
20260505031557 6 34 14.5 24.1 0.00 0.00 0.00 45 929.6
20260505030036 7 29 19.3 25.7 0.00 0.00 0.00 43 929.4
20260505024533 7 33 20.9 32.2 0.00 0.00 0.00 41 929.0
20260505023019 8 15 22.5 32.2 0.00 0.00 0.00 38 928.8
20260505021510 8 38 27.4 38.6 0.00 0.00 0.00 36 928.5
20260505020053 10 14 24.1 37.0 0.00 0.00 0.00 34 928.3
20260505014555 10 27 22.5 40.2 0.00 0.00 0.00 31 928.1
20260505013032 11 40 27.4 41.8 0.00 0.00 0.00 28 927.9
20260505011534 12 5 27.4 45.1 0.00 0.00 0.00 27 927.7
20260505010016 12 360 32.2 41.8 0.00 0.00 0.00 27 927.6
20260505004508 12 351 30.6 43.5 0.00 0.00 0.00 25 927.6
20260505003054 12 13 30.6 41.8 0.00 0.00 0.00 23 927.5
20260505001549 12 329 38.6 48.3 0.00 0.00 0.00 22 927.3
20260505000042 13 9 32.2 51.5 0.00 0.00 0.00 23 927.3
20260504234528 13 355 32.2 48.3 0.00 0.00 0.00 24 927.2
20260504233010 13 347 32.2 56.3 0.00 0.00 0.00 23 927.1
20260504231509 12 342 37.0 56.3 0.00 0.00 0.00 23 927.0
20260504230056 13 350 27.4 54.7 0.00 0.00 0.00 24 926.9
20260504224554 12 341 35.4 49.9 0.00 0.00 0.00 26 926.9
20260504223101 13 324 35.4 51.5 0.00 0.00 0.00 27 926.8
20260504221603 13 336 32.2 48.3 0.00 0.00 0.00 28 926.9
20260504220052 12 331 30.6 51.5 0.00 0.00 0.00 29 926.9
20260504214601 13 329 30.6 49.9 0.00 0.00 0.00 30 926.8
20260504213103 12 355 33.8 49.9 0.00 0.00 0.00 31 926.8
20260504211551 12 339 24.1 54.7 0.00 0.00 0.00 30 926.8
20260504210022 13 332 35.4 49.9 0.00 0.00 0.00 29 926.8
20260504204519 12 327 29.0 54.7 0.00 0.00 0.00 33 926.8
20260504203059 12 322 41.8 54.7 0.00 0.00 0.00 32 926.8
20260504201600 12 327 29.0 54.7 0.00 0.00 0.00 32 926.6
20260504200041 11 325 37.0 51.5 0.00 0.00 0.00 31 926.7
20260504194544 12 328 24.1 57.9 0.00 0.00 0.00 32 926.5
20260504193022 12 332 29.0 48.3 0.00 0.00 0.00 34 926.6
20260504191532 13 324 29.0 51.5 0.00 0.00 0.00 32 926.6
20260504190005 13 334 29.0 49.9 0.00 0.00 0.00 34 926.5
20260504184503 13 338 29.0 53.1 0.00 0.00 0.00 34 926.3
20260504183045 13 328 35.4 51.5 0.00 0.00 0.00 34 926.3
20260504181546 13 5 35.4 48.3 0.00 0.00 0.00 35 926.1
20260504180025 12 320 33.8 41.8 0.00 0.00 0.00 36 926.4
20260504174524 12 326 32.2 45.1 0.00 0.00 0.00 36 926.5
20260504173006 13 341 38.6 54.7 0.00 0.00 0.00 37 926.4
20260504171504 12 340 35.4 51.5 0.00 0.00 0.00 38 926.4
20260504130138 7 274 19.3 24.1 0.00 0.00 0.00 62 926.5
20260504081554 8 27 25.7 40.2 0.00 0.00 0.00 57 926.2
20260504080112 9 46 29.0 46.7 0.00 0.00 0.00 55 926.0
20260504050003 12 35 33.8 53.1 0.00 0.00 0.00 38 923.0
20260504044545 12 64 37.0 59.5 0.00 0.00 0.00 37 922.4
20260504043043 13 28 30.6 46.7 0.00 0.00 0.00 41 921.9
20260504041525 14 23 17.7 25.7 0.00 0.00 0.00 39 921.6
20260504040039 14 35 16.1 25.7 0.00 0.00 0.00 38 921.3
20260504034507 14 38 17.7 24.1 0.00 0.00 0.00 37 921.0